Hourly Data Report for October 28, 2015

All times are specified in Local Standard Time (LST). Add 1 hour to adjust for Daylight Saving Time where and when it is observed.

GJOA HAVEN A
NUNAVUT

68°38'08.000" N
95°51'01.000" W
46.90 m
2302337
71597
YHK

Download Data

Hourly Data (October 2015)
Hourly Data Report for October 28, 2015
Temp Definition
°C
Dew Point Temp Definition
°C
Rel Hum Definition
%
Wind Dir Definition
10's deg

Wind Spd Definition
km/h
Visibility Definition
km
Stn Press Definition
kPa
Hmdx Definition


Wind Chill Definition


Weather Definition


TIME
00:00 Legend Double Dagger -14.7 -16.0 90 32 9 16.1 100.74   -20 Snow
01:00 Legend Double Dagger -14.8 -16.1 90 31 11 16.1 100.70   -21 Snow
02:00 Legend Double Dagger -15.6 -17.0 89 30 13 16.1 100.69   -23 LegendNANA
03:00 Legend Double Dagger -14.6 -15.9 90 32 9 16.1 100.68   -20 LegendNANA
04:00 Legend Double Dagger -14.2 -15.5 90 35 9 16.1 100.68   -20 LegendNANA
05:00 Legend Double Dagger -14.1 -15.4 90 30 11 16.1 100.64   -21 LegendNANA
06:00 Legend Double Dagger -13.6 -14.8 91 29 8 16.1 100.65   -19 Snow
07:00 Legend Double Dagger -13.4 -14.6 91 27 11 12.9 100.63   -20 Snow
08:00 Legend Double Dagger -13.1 -14.3 91 31 13 16.1 100.60   -20 Snow
09:00 Legend Double Dagger -13.0 -14.2 91 30 11 16.1 100.59   -19 Snow
10:00 Legend Double Dagger -13.1 -14.3 91 31 11 12.9 100.59   -19 Snow
11:00 Legend Double Dagger -14.1 -15.4 90 31 13 16.1 100.60   -21 LegendNANA
12:00 Legend Double Dagger -14.1 -15.4 90 34 13 16.1 100.61   -21 LegendNANA
13:00 Legend Double Dagger -13.9 -15.2 90 34 18 16.1 100.61   -22 Snow
14:00 Legend Double Dagger -13.8 -15.0 91 34 18 16.1 100.62   -22 Snow
15:00 Legend Double Dagger -13.7 -14.9 91 32 22 16.1 100.62   -23 LegendNANA
16:00 Legend Double Dagger -13.7 -15.0 90 35 22 16.1 100.62   -23 LegendNANA
17:00 Legend Double Dagger -13.8 -15.1 90 34 26 16.1 100.60   -24 LegendNANA
18:00 Legend Double Dagger -14.4 -15.7 90 35 26 16.1 100.60   -25 Snow
19:00 Legend Double Dagger -15.9 -17.5 88 35 26 16.1 100.62   -27 LegendNANA
20:00 Legend Double Dagger -15.8 -17.2 89 35 22 16.1 100.62   -26 LegendNANA
21:00 Legend Double Dagger -16.3 -17.9 88 36 26 16.1 100.63   -27 LegendNANA
22:00 Legend Double Dagger -17.6 -19.3 87 35 22 16.1 100.66   -28 LegendNANA
23:00 Legend Double Dagger -18.2 -19.9 87 36 24 16.1 100.66   -29 Snow

Notes on Data Quality.

Legend

  • E = Estimated
  • M = Missing
  • NA = Not Available
  • ‡ = Partner data that is not subject to review by the National Climate Archives
Date modified: